Starlink 31862

operational
NORAD ID: 59786 Int'l Des: 2024-093 Owner: SPXS Country: US Constellation: starlink
LEOCIRCULAR

关于 Starlink 31862

正在加载描述...

实时位置

正在加载3D地球...

即将过境

高度历史

Altitude vs Time

uPlot chart will show altitude changes over time

两行轨道根数

1 59786U 24093E 25354.14281522 .00000203 00000-0 16886-4 0 9995
2 59786 43.0009 297.8023 0000743 261.3303 98.7464 15.27579861 90532
Epoch: Dec 20, 2025 • Age: 20 hours

当前状态

高度 489.7 km
速度 7.62 km/s
星下点 -27.28°S, 175.21°E
发射日期 May 18, 2024
运行时间 1.5 years
类型 internet

技术详情

分类 Payload
质量 730.00 kg
干质量 700.00 kg
总质量 730.00 kg
长度 0.30 m
直径 4.10 m
跨度 29.00 m
形状 Box + pan
制造商 SPXS
平台类型 Starlink V2M
阶段状态 In Orbit
所有者/国家 SPXS/US

大型星座

Loading constellations...